sat.trackr.live / text

‹ back to catalog

STARLINK-4294

NORAD 53176 · 2022-083AW

PAYLOAD ACTIVE UNKNOWN

§ Identity

Operator
Country
US
Launch date
2022-07-17
Launch site
AFETR
Launch vehicle
Mass (kg)
RCS (m²)

Purposes: comms

External: N2YO · Heavens-Above · Gunter

§ Orbital elements

Epoch: 2026-05-25T01:38:22.606944Z

Period
95.44 min
Inclination
53.2127°
Eccentricity
0.0000973
Mean motion
15.08841060 rev/d
Perigee alt
539.1 km
Apogee alt
540.4 km
Semi-major
6,917.9 km
B*
-3.9153e-5
RAAN
166.1549°
Arg perigee
75.6229°
Mean anomaly
284.4871°
Rev number
21,309

§ Raw data

STARLINK-42941 53176U 22083AW  26145.06831721 -.00000911  00000+0 -39153-4 0  99902 53176  53.2127 166.1549 0000973  75.6229 284.4871 15.08841060213098

JSON: /api/v1/satellites/53176 · /tle

For live sub-satellite position, see the globe view (requires WebGL).

§ Visibility from observer

Set your observer location to see the next 7 days of passes ≥ 10°. The values pass through the URL so the page stays shareable.

No JS? Fill the form by hand. The geolocation button needs JavaScript.